Overview Statistics Trail Chart Weather Telemetry Raw packets
 

This is the latest recevied weather packets stored in our database for station/object K6CED. If no packets are shown the sender has not sent any weather packets the latest 10 day(s).

<< 65 66 67 68 69 70 71 >>
Time Temp. Humidity Pressure Rain* Wind** Luminosity Snow
1788211711 31.67° C 37% 1015.6 hPa 0 mm - 738 W/m² -
1788211408 31.67° C 37% 1015.8 hPa 0 mm - 747 W/m² -
1788211106 31.67° C 38% 1015.8 hPa 0 mm - 751 W/m² -
1788210801 31.67° C 38% 1015.8 hPa 0 mm - 760 W/m² -
1788210501 31.11° C 38% 1015.8 hPa 0 mm - 764 W/m² -
1788210197 31.11° C 39% 1015.9 hPa 0 mm - 765 W/m² -
1788209892 31.67° C 37% 1016 hPa 0 mm - 766 W/m² -
1788209588 31.11° C 38% 1016.2 hPa 0 mm - 761 W/m² -
1788209282 30.56° C 39% 1016 hPa 0 mm - 757 W/m² -
1788208982 31.67° C 37% 1015.9 hPa 0 mm - 743 W/m² -
1788208681 31.67° C 34% 1016 hPa 0 mm - 733 W/m² -
1788208375 31.67° C 33% 1016.1 hPa 0 mm - 725 W/m² -
1788208073 31.11° C 38% 1016.2 hPa 0 mm - 714 W/m² -
1788207768 31.67° C 36% 1016.1 hPa 0 mm - 726 W/m² -
1788207462 31.11° C 37% 1016.2 hPa 0 mm - 723 W/m² -
1788207161 31.11° C 36% 1016.1 hPa 0 mm - 736 W/m² -
1788206857 31.11° C 36% 1016 hPa 0 mm - 747 W/m² -
1788206552 31.11° C 37% 1016 hPa 0 mm - 755 W/m² -
1788206247 31.11° C 37% 1016.1 hPa 0 mm - 764 W/m² -
1788205943 31.67° C 37% 1016.2 hPa 0 mm - 776 W/m² -
1788205638 31.11° C 37% 1016.2 hPa 0 mm - 778 W/m² -
1788205334 30.56° C 37% 1016.3 hPa 0 mm - 795 W/m² -
1788205027 30° C 38% 1016.3 hPa 0 mm - 798 W/m² -
1788204723 30.56° C 40% 1016.4 hPa 0 mm - 805 W/m² -
1788204418 30.56° C 40% 1016.3 hPa 0 mm - 816 W/m² -

* Rain latest hour (hover to see other rain measurements)
** Current wind speed in m/s (hover to see current wind gust speed)